(23154) = 1979 MT5 = 1979 OF8 = 2000 CL58

Discovered at Socorro on 2000-02-05 by LINEAR.

Orbit

Orbit type: Main Belt

Note: WebGL enabled browser required.

epoch2023-09-13.0
epoch JD2460200.5
perihelion date2021-10-17.32289
perihelion JD2459504.82289
argument of perihelion (°)11.08664
ascending node (°)132.58027
inclination (°)14.01146
eccentricity0.1221971
perihelion distance (AU)2.3589549
Tisserand w.r.t. Jupiter3.3
ΔV w.r.t. Earth (km/sec)10.6
semimajor axis (AU)2.6873402
mean anomaly (°)155.64228
mean daily motion (°/day)0.22372780
aphelion distance (AU)3.016
period (years)4.41
P-vector [x]-0.80137354
P-vector [y]0.52862068
P-vector [z]0.27992968
Q-vector [x]-0.57097959
Q-vector [y]-0.81549633
Q-vector [z]-0.09459412
absolute magnitude14.22
phase slope0.15
uncertainty0
referenceMPEC 2024-A48
observations used1969
oppositions21
arc length (days)26489
first opposition used1951
last opposition used2023
residual rms (arc-secs)0.64
perturbers coarse indicatorM-v
perturbers precise indicator003Ek
first observation date used1951-02-04.0
last observation date used2023-08-13.0
computer nameMPCLINUX
JD of orbit computation2456465.546626
perihelion JD uncertainty (days)8.5485E-05
argument of perihelion uncertainty (°)2.7008E-05
ascending node uncertainty (°)1.7639E-05
inclination uncertainty (°)5.6394E-06
eccentricity uncertainty 5.0367E-08
perihelion distance uncertainty (AU)1.3564E-07
Minimum Orbit Intersection Distances (in AU)
for orbit epoch: 2460200.5, reference: E2024-A48
Mercury2.00311
Venus1.64042
Earth1.37202
Mars0.69757
Jupiter2.01349
Saturn6.55392
Uranus16.0864
Neptune26.9797

Observations

2002 total observations over interval: 1951 02 04.24583 – 2023 08 13.901289
These data are available for download (format description).

Date (UT) J2000 RA J2000 Dec Magn Location Ref
1951 02 04.24583 08 04 45.75 +17 11 04.9   261 – Palomar Mountain-DSS MPS 26636
1951 02 04.28056 08 04 44.09 +17 11 26.2   261 – Palomar Mountain-DSS MPS 26636
1979 06 24.63611 20 29 04.40 -12 38 09.1   413 – Siding Spring Observatory MPC 4992
1979 06 25.66181 20 28 30.73 -12 42 37.3 20.0   413 – Siding Spring Observatory MPC 4992
1979 06 29.70984 20 26 06.76 -13 01 30.4   413 – Siding Spring Observatory MPC 4992
1979 07 24.51944 20 06 36.61 -15 30 45.5 19.0   413 – Siding Spring Observatory MPC 5762
1979 07 26.24931 20 05 07.17 -15 42 26.0   675 – Palomar Mountain MPC 5762
1979 07 27.25278 20 04 15.24 -15 49 11.3   675 – Palomar Mountain MPC 5762
1998 11 13.42730 04 14 41.56 -00 31 23.8 18.2   704 – Lincoln Laboratory ETS, New Mexico MPS 12216
1998 11 13.43693 04 14 41.14 -00 31 26.8 18.2   704 – Lincoln Laboratory ETS, New Mexico MPS 12216
1998 11 13.44672 04 14 40.66 -00 31 26.7 18.4   704 – Lincoln Laboratory ETS, New Mexico MPS 12216
1998 11 13.45654 04 14 40.07 -00 31 30.9 18.6   704 – Lincoln Laboratory ETS, New Mexico MPS 12216
1998 11 13.46643 04 14 39.18 -00 31 30.9 19.1   704 – Lincoln Laboratory ETS, New Mexico MPS 12216
2000 01 08.46275 13 09 35.04 +03 03 18.1 18.4   704 – Lincoln Laboratory ETS, New Mexico MPS 12216
2000 01 08.47768 13 09 36.02 +03 03 18.9 19.2   704 – Lincoln Laboratory ETS, New Mexico MPS 12216
2000 01 08.49263 13 09 36.99 +03 03 18.7 18.8   704 – Lincoln Laboratory ETS, New Mexico MPS 12216
2000 01 08.50765 13 09 37.96 +03 03 19.8 18.7   704 – Lincoln Laboratory ETS, New Mexico MPS 12216
2000 01 08.52302 13 09 38.99 +03 03 19.7 18.7   704 – Lincoln Laboratory ETS, New Mexico MPS 12216
2000 02 05.48248 13 34 07.13 +04 33 02.6 16.6   704 – Lincoln Laboratory ETS, New Mexico MPS 10391
2000 02 05.49695 13 34 07.63 +04 33 08.0 16.0   704 – Lincoln Laboratory ETS, New Mexico MPS 10391
2000 02 05.51151 13 34 08.04 +04 33 13.1 17.0   704 – Lincoln Laboratory ETS, New Mexico MPS 10391
2000 02 05.52598 13 34 08.56 +04 33 18.3 15.9   704 – Lincoln Laboratory ETS, New Mexico MPS 10391
2000 02 06.46316 13 34 40.14 +04 38 57.9 18.6   704 – Lincoln Laboratory ETS, New Mexico MPS 10391
2000 02 06.47763 13 34 40.58 +04 39 03.4 18.6   704 – Lincoln Laboratory ETS, New Mexico MPS 10391
2000 02 06.49221 13 34 41.11 +04 39 07.9 19.4   704 – Lincoln Laboratory ETS, New Mexico MPS 10391
2000 02 06.50676 13 34 41.49 +04 39 14.5 18.3   704 – Lincoln Laboratory ETS, New Mexico MPS 10391
2000 02 06.52146 13 34 41.96 +04 39 19.7 18.0   704 – Lincoln Laboratory ETS, New Mexico MPS 10391
2000 03 29.30973 13 27 21.29 +12 41 48.0 17.5   704 – Lincoln Laboratory ETS, New Mexico MPS 12216
2000 03 29.33151 13 27 20.32 +12 42 00.1 17.8   704 – Lincoln Laboratory ETS, New Mexico MPS 12216
2000 03 29.34709 13 27 19.59 +12 42 08.7 17.8   704 – Lincoln Laboratory ETS, New Mexico MPS 12216
2000 03 29.36170 13 27 18.92 +12 42 16.3 18.0   704 – Lincoln Laboratory ETS, New Mexico MPS 12216
2000 03 29.37722 13 27 18.20 +12 42 24.8 17.5   704 – Lincoln Laboratory ETS, New Mexico MPS 12216
2000 04 03.30534 13 23 36.11 +13 24 55.5 17.4   704 – Lincoln Laboratory ETS, New Mexico MPS 12216
2000 04 03.31972 13 23 35.41 +13 25 02.9 18.0   704 – Lincoln Laboratory ETS, New Mexico MPS 12216
2000 04 03.33414 13 23 34.73 +13 25 09.9 17.8   704 – Lincoln Laboratory ETS, New Mexico MPS 12216
2000 04 03.34854 13 23 34.02 +13 25 17.1 17.8   704 – Lincoln Laboratory ETS, New Mexico MPS 12216
2000 04 03.36294 13 23 33.31 +13 25 23.7 17.9   704 – Lincoln Laboratory ETS, New Mexico MPS 12216
2000 04 08.27253 13 19 43.13 +14 02 18.9 18.0   704 – Lincoln Laboratory ETS, New Mexico MPS 12216
2000 04 08.28679 13 19 42.44 +14 02 23.8 17.8   704 – Lincoln Laboratory ETS, New Mexico MPS 12217
2000 04 08.30082 13 19 41.73 +14 02 30.1 17.8   704 – Lincoln Laboratory ETS, New Mexico MPS 12217
2000 04 08.31494 13 19 41.03 +14 02 35.4 17.8   704 – Lincoln Laboratory ETS, New Mexico MPS 12217
2000 04 08.32870 13 19 40.38 +14 02 41.3 17.7   704 – Lincoln Laboratory ETS, New Mexico MPS 12217
2000 04 14.28768 13 15 00.92 +14 38 55.5 16.8   704 – Lincoln Laboratory ETS, New Mexico MPS 12217
2000 04 14.30096 13 15 00.23 +14 38 59.3 16.9   704 – Lincoln Laboratory ETS, New Mexico MPS 12217
2000 04 14.31425 13 14 59.60 +14 39 04.3 17.5   704 – Lincoln Laboratory ETS, New Mexico MPS 12217
2000 04 14.32755 13 14 58.97 +14 39 07.6 17.7   704 – Lincoln Laboratory ETS, New Mexico MPS 12217
2000 04 14.34084 13 14 58.29 +14 39 11.9 17.7   704 – Lincoln Laboratory ETS, New Mexico MPS 12217
2000 04 25.83271 13 06 47.32 +15 19 39.7 17.1   106 – Crni Vrh MPS 14125
2000 04 25.85269 13 06 46.61 +15 19 41.3 17.8   106 – Crni Vrh MPS 14125
2000 04 25.87338 13 06 45.74 +15 19 43.8 17.7   106 – Crni Vrh MPS 14125
2000 04 28.14558 13 05 21.88 +15 23 00.7 18.0   704 – Lincoln Laboratory ETS, New Mexico MPS 14125
2000 04 28.16019 13 05 21.22 +15 23 02.0 18.6   704 – Lincoln Laboratory ETS, New Mexico MPS 14125
2000 04 28.20358 13 05 19.64 +15 23 05.0 19.1   704 – Lincoln Laboratory ETS, New Mexico MPS 14125
2000 04 28.21633 13 05 19.04 +15 23 06.3 18.6   704 – Lincoln Laboratory ETS, New Mexico MPS 14125
2000 05 03.27333 13 02 32.78 +15 24 48.5 18.0   704 – Lincoln Laboratory ETS, New Mexico MPS 14125
2000 05 03.28626 13 02 32.41 +15 24 49.4 18.5   704 – Lincoln Laboratory ETS, New Mexico MPS 14125
2000 05 03.29907 13 02 31.94 +15 24 48.0 18.4   704 – Lincoln Laboratory ETS, New Mexico MPS 14125
2000 05 03.31189 13 02 31.50 +15 24 48.5 19.0   704 – Lincoln Laboratory ETS, New Mexico MPS 14125
2000 05 03.32468 13 02 31.11 +15 24 48.0 18.1   704 – Lincoln Laboratory ETS, New Mexico MPS 14125
2000 05 31.16804 12 57 43.20 +13 38 19.1 18.2   704 – Lincoln Laboratory ETS, New Mexico MPS 15684
2000 05 31.20836 12 57 43.52 +13 38 03.0 18.5   704 – Lincoln Laboratory ETS, New Mexico MPS 15684
2000 05 31.22164 12 57 43.66 +13 37 57.4 18.8   704 – Lincoln Laboratory ETS, New Mexico MPS 15684
2000 06 03.19916 12 58 18.19 +13 17 27.2 18.1 R 699 – Lowell Observatory-LONEOS MPS 15684
2000 06 03.21106 12 58 18.32 +13 17 22.8   699 – Lowell Observatory-LONEOS MPS 15684
2000 06 03.22290 12 58 18.47 +13 17 17.3   699 – Lowell Observatory-LONEOS MPS 15684
2000 06 03.23475 12 58 18.60 +13 17 11.9   699 – Lowell Observatory-LONEOS MPS 15684
2001 06 15.36389 20 19 11.43 -12 03 12.6 18.2   704 – Lincoln Laboratory ETS, New Mexico MPS 32051
2001 06 15.37657 20 19 11.03 -12 03 15.3 18.8   704 – Lincoln Laboratory ETS, New Mexico MPS 32051
2001 06 15.38927 20 19 10.71 -12 03 17.2 18.7   704 – Lincoln Laboratory ETS, New Mexico MPS 32051
2001 06 15.40190 20 19 10.37 -12 03 19.4 18.5   704 – Lincoln Laboratory ETS, New Mexico MPS 32051
2001 06 15.45608 20 19 09.28 -12 03 28.8 21.0   608 – Haleakala-AMOS MPS 32051
2001 06 15.46671 20 19 08.98 -12 03 30.6 20.4   608 – Haleakala-AMOS MPS 32051
2001 06 15.47696 20 19 08.70 -12 03 33.1 20.5   608 – Haleakala-AMOS MPS 32051
2001 06 29.53377 20 11 10.67 -13 00 52.3 19.3   608 – Haleakala-AMOS MPS 32051
2001 06 29.54419 20 11 10.22 -13 00 55.9 20.2   608 – Haleakala-AMOS MPS 32051
2001 06 29.55489 20 11 09.74 -13 00 58.9 19.3   608 – Haleakala-AMOS MPS 32051
2001 07 25.27529 19 49 59.10 -15 33 57.2 18.8 V 691 – Steward Observatory, Kitt Peak-Spacewatch MPS 32693
2001 07 25.29808 19 49 57.90 -15 34 06.0 18.7 V 691 – Steward Observatory, Kitt Peak-Spacewatch MPS 32693
2001 07 25.32077 19 49 56.68 -15 34 15.0 18.6 V 691 – Steward Observatory, Kitt Peak-Spacewatch MPS 32693
2001 07 27.49998 19 48 04.93 -15 48 30.0 19.0   608 – Haleakala-AMOS MPS 32693
2001 07 27.51036 19 48 04.38 -15 48 33.8 19.1   608 – Haleakala-AMOS MPS 32693
2001 07 27.52131 19 48 03.82 -15 48 38.3 19.1   608 – Haleakala-AMOS MPS 32693
2001 08 15.28291 19 34 14.75 -17 47 25.0 19.5   608 – Haleakala-AMOS MPS 33058
2001 08 15.29363 19 34 14.32 -17 47 28.4 19.4   608 – Haleakala-AMOS MPS 33058
2001 08 15.30397 19 34 13.95 -17 47 32.3 19.8   608 – Haleakala-AMOS MPS 33058
2001 08 16.20950 19 33 42.56 -17 52 52.4 19.0   704 – Lincoln Laboratory ETS, New Mexico MPS 33058
2001 08 16.22213 19 33 42.12 -17 52 57.3 19.2   704 – Lincoln Laboratory ETS, New Mexico MPS 33058
